User: anonymous
Location: Unspecified
(0.0000°N, 0.0000°E)
Time: 09:30:44
(UTC+02:00)
Language:

ATLAS 2AS CENTAUR R/B - Orbit

View from above orbital plane
View from above orbital plane
View from above satellite
View from above satellite

Ground track
Ground track

The orbit data is extracted from the following two-line orbital elements,

1 28096U 03054B   14092.00568275 0.00000110  00000-0  16820-3 0    01
2 28096  63.6690 140.3215 0241000 299.2990  60.7009 13.40733407    04
Epoch (UTC): 02 April 2014 00:08:10
Eccentricity: 0.0241000
inclination: 63.6690°
perigee height: 926 km
apogee height: 1287 km
right ascension of ascending node: 140.3215°
argument of perigee: 299.2990°
revolutions per day: 13.40733407
mean anomaly at epoch: 60.7009°
orbit number at epoch: 0

The dashed part of the orbit path shows where the satellite is in the earth's shadow,  

DLR